Location: Lafig�re
(44.4503°N, 4.0357°E)
Time: 05:47:33
(UTC+00:00)

Cosmos 1125 Rocket - Pass Details

Date: 22 January 2021
Orbit: 757 x 780 km, 74.0° (Epoch: 06 March)

Event Time Altitude Azimuth Distance (km) Brightness Sun altitude
Rises 06:21:30 0° 338° (NNW) 3,265 6.4 -9.1°
Reaches altitude 10° 06:23:53 10° 337° (NNW) 2,336 5.6 -8.7°
Maximum altitude 06:29:12 81° 251° (WSW) 795 3.5 -7.8°
Drops below altitude 10° 06:34:30 10° 165° (SSE) 2,327 6.5 -7.0°
Sets 06:36:52 0° 164° (SSE) 3,251 7.3 -6.6°
